Create Custom Reports and Graphics: Custom Report

Lindcove R.E.C.

Current Conditions

5/22/22 3:30 PM (-07:00)
Updated Every 15 Minutes
Temp 92.1 °F   4.6
Upper Temp 86.7 °F   4.2
Temp Inversion -5.4 °F   0.5
RH 13 %   2
Dew Pt 33.9 °F   7.0
Wind Dir W | 277 °
Wind Spd 3.9 mph   0.2
Wind Gust 11.2 mph   0.4
BatVolt 13.0 V   0.0

Today & Yesterday

Lindcove R.E.C.

5/22/22 3:30 PM (-07:00)
Updated Every 15 Minutes
Daily Max Temp 92.8 °F   4.2
Time of Max Temp 1523
Daily Min Temp 48.7 °F   2.6
Time of Min Temp 0555
Upper Max Temp 87.9 °F   4.0
Upper Min Temp 54.1 °F   3.7
Daily Max Wind 14.0 mph   0.9
Time of Max Wind 1454
Max Wind Dir WNW | 283 °
Daily Rain 0.00 In
Yest MaxT 89.1 °F
Yest MinT 46.2 °F
Yest MaxGst 13.2 mph
Yest Rain 0.00 In
Monthly Rain 0.00 In
Seasonal Rainfall 9.09 In

Daily Meteorological Summary

Last 30 Days

Daily Data | America/Los_Angeles
as of 5/22/22 3:33 PM PDT
Date Daily Max Temp (°F) Time of Max Temp Daily Min Temp (°F) Time of Min Temp Daily Rain (In) Seasonal Rainfall (In) Wind Spd (mph) Daily Max Wind (mph) Time of Max Wind Max Wind Dir (°) Dew Pt (°F) Max RH (%) Min RH (%) Upper Max Temp (°F) Max Upper Temp Time Upper Min Temp (°F) Min Upper Temp Time Max Temp Inversion (°F) Time of Max Temp Inversion Min Temp Inversion (°F) Time of Min Temp Inversion Max 1 Min Rain (In) Max 1 Min Rain Time Max 15 Min Rain (In) Max 15 Min Precip Time Max 60 Min Rain (In) Max 60 Min Rain Time Storm Total (In) MinBV Day (V)
5/21/22 89.1 1552 46.2 0606 0.00 9.09 2.0 13.2 1456 WSW | 245 33.6 74 10 84.9 1625 50.4 0600 12.8 0439 -7.3 1149 - - - - - - - 12.4
5/20/22 83.8 1606 52.0 0057 0.00 9.09 2.7 14.0 1320 WSW | 251 36.7 63 13 80.8 1804 57.6 0059 10.0 2237 -7.1 1312 - - - - - - - 12.5
5/19/22 97.2 1558 57.8 0601 0.00 9.09 2.7 18.0 1209 S | 186 49.3 82 18 93.6 1743 62.3 0445 12.5 0241 -6.7 1422 - - - - - - - 12.5
5/18/22 94.2 1533 53.9 0611 0.00 9.09 2.0 12.1 1012 WSW | 250 49.2 86 18 91.4 1759 57.9 0607 11.4 0309 -6.4 1426 - - - - - - - 12.5
5/17/22 87.6 1605 51.7 0613 0.00 9.09 2.3 12.7 1002 SSW | 197 48.2 86 22 84.9 1658 54.1 0606 10.2 2204 -6.6 1258 - - - - - - - 12.4
5/16/22 88.5 1601 58.1 0547 0.00 9.09 2.8 13.8 0932 S | 172 45.0 71 17 86.7 1650 59.6 0620 10.6 2131 -5.7 1341 - - - - - - - 12.4
5/15/22 94.8 1450 54.8 0546 0.00 9.09 2.1 17.1 1209 SW | 231 49.0 83 15 92.4 1726 60.0 0527 11.9 0543 -7.1 1338 - - - - - - - 12.5
5/14/22 91.9 1519 49.9 0441 0.00 9.09 2.2 16.7 1030 SW | 221 45.4 76 19 89.2 1733 53.6 0605 12.1 0322 -6.7 1332 - - - - - - - 12.4
5/13/22 84.2 1612 41.5 0606 0.00 9.09 2.2 14.7 1043 SSW | 200 37.1 78 17 81.9 1716 45.6 0532 11.0 0056 -7.4 1447 - - - - - - - 12.4
5/12/22 78.2 1514 39.1 0557 0.00 9.09 2.0 13.4 1751 W | 281 33.8 84 18 75.8 1804 44.3 0531 12.1 0410 -6.8 1341 - - - - - - - 12.4
5/11/22 72.1 1557 39.6 0547 0.00 9.09 2.7 16.2 1625 WNW | 284 30.8 80 14 69.1 1556 42.6 0601 9.6 0017 -6.9 1142 - - - - - - - 12.4
5/10/22 70.4 1452 42.5 0336 0.00 9.09 2.6 14.0 1735 WNW | 290 30.9 76 17 65.8 1724 45.0 0554 6.8 2119 -7.1 1452 - - - - - - - 12.4
5/9/22 68.3 1603 40.6 0554 0.00 9.09 2.6 13.6 1656 W | 276 31.5 76 15 65.2 1729 43.8 0615 10.4 2150 -6.8 1216 - - - - - - - 12.4
5/8/22 73.5 1514 47.1 0541 0.00 9.09 3.8 17.8 1923 NNW | 327 34.4 80 14 69.5 1610 49.0 0626 3.8 0427 -7.3 1211 - - - - - - - 12.4
5/7/22 80.6 1515 53.6 2336 0.00 9.09 2.4 14.9 1644 W | 263 44.9 82 22 76.8 1607 56.7 0624 8.0 2227 -6.7 1503 - - - - - - - 12.5
5/6/22 87.6 1602 51.5 0632 0.00 9.09 2.5 14.2 1054 SW | 216 47.8 82 22 83.9 1715 55.5 0641 7.8 2145 -6.5 1440 - - - - - - - 12.4
5/5/22 93.9 1431 51.2 0616 0.00 9.09 2.2 14.0 1623 WNW | 294 41.0 80 12 90.5 1605 56.6 0612 14.4 0528 -6.9 1225 - - - - - - - 12.4
5/4/22 91.7 1552 47.4 0615 0.00 9.09 1.4 9.9 1502 W | 281 42.9 89 12 88.8 1714 50.7 0610 12.1 2047 -6.7 1255 - - - - - - - 12.4
5/3/22 80.6 1525 48.2 0620 0.00 9.09 2.5 14.2 1051 SSW | 209 42.2 80 23 78.4 1640 50.5 0616 10.2 2213 -6.2 1440 - - - - - - - 12.4
5/2/22 85.1 1517 48.2 0612 0.00 9.09 2.7 15.3 1735 WSW | 254 42.5 86 16 82.7 1514 52.0 0602 10.2 0410 -5.8 1139 - - - - - - - 12.4
5/1/22 81.2 1554 48.5 0625 0.00 9.09 2.4 14.0 1041 SW | 232 44.2 83 23 77.3 1745 51.2 0643 9.4 2333 -6.7 1528 - - - - - - - 12.4
4/30/22 85.2 1544 45.2 0627 0.00 9.09 1.8 11.4 1758 WNW | 300 41.7 89 18 82.0 1649 49.4 0609 12.6 0213 -6.4 1406 - - - - - - - 12.4
4/29/22 78.7 1601 41.8 0629 0.00 9.09 2.2 13.4 1116 SW | 234 40.1 87 23 76.2 1729 44.6 0624 10.9 2050 -6.3 1333 - - - - - - - 12.4
4/28/22 76.9 1521 45.5 0621 0.00 9.09 3.0 20.4 1618 W | 274 35.1 76 15 73.1 1552 47.9 0645 8.8 0115 -6.8 1409 - - - - - - - 12.4
4/27/22 83.1 1535 47.7 0621 0.00 9.09 2.2 14.0 1043 SSW | 211 40.8 88 17 79.2 1704 50.4 0503 11.1 2208 -6.4 1535 - - - - - - - 12.4
4/26/22 80.8 1400 49.1 0508 0.00 9.09 2.4 16.4 1036 SW | 234 45.7 86 26 78.8 1705 52.0 0617 10.2 0430 -4.9 1118 - - - - - - - 12.4
4/25/22 91.1 1534 46.8 0610 0.00 9.09 1.7 11.2 1542 WNW | 299 41.8 92 12 86.8 1620 51.1 0643 11.8 2039 -6.8 1416 - - - - - - - 12.4
4/24/22 83.4 1549 44.9 0533 0.00 9.09 2.1 14.7 1044 SSW | 213 43.4 95 19 80.2 1653 47.3 0632 9.3 0603 -7.0 1226 - - - - - - - 12.4
4/23/22 76.2 1558 40.7 0610 0.00 9.09 1.9 12.9 1001 SSW | 204 43.3 95 25 72.3 1705 43.5 0622 8.4 2045 -6.3 1506 - - - - - - 0.29 12.4
4/22/22 69.2 1551 46.0 0058 0.18 9.09 2.3 16.0 1716 NW | 326 45.7 95 35 66.1 1710 48.8 0059 6.4 0006 -6.0 1141 0.01 0954 0.04 0307 0.09 0418 0.29 12.4
Max 97.2 - 58.1 - 0.18 9.09 3.8 20.4 - - 49.3 95 35 93.6 - 62.3 - 14.4 - -4.9 - - - - - - - 0.29 12.5
Avg - - - - - - 2.3 - - - 41.3 - - - - - - - - - - - - - - - - 0.29 -
Min 68.3 - 39.1 - 0.00 9.09 1.4 9.9 - - 30.8 63 10 65.2 - 42.6 - 3.8 - -7.4 - - - - - - - 0.29 12.4

Daily Bio-Meteorological Summary

Last 30 Days

Daily Data | America/Los_Angeles
as of 5/22/22 3:33 PM PDT
Date Daily Max Temp (°F) Daily Min Temp (°F) Daily Rain (In) GDDs (DL) GDDs (Mx/Mn) Seas GDDs (DL) Seas GDDs (Smpl) Chilling <=45F (hrs) Chill Hrs 32-45F (hrs) Utah Chilling (Units) Chill Portions Hrs 70-85F (hrs) Hrs > 95F (hrs) Powdery Mildew Stress (pts) Bee Hrs Today (Hrs) Hrs <= 32F (hrs) Hrs <= 28F (hrs)
5/21/22 89.1 46.2 0.00 18.5 17.6 722 711 0.0 0.0 0.0 - 4.42 0.00 40 12.5 0.0 0.0
5/20/22 83.8 52.0 0.00 18.7 17.9 703 693 0.0 0.0 0.5 - 10.19 0.00 50 13.6 0.0 0.0
5/19/22 97.2 57.8 0.00 27.8 27.5 684 676 0.0 0.0 -18.5 - 2.61 1.75 30 13.5 0.0 0.0
5/18/22 94.2 53.9 0.00 24.1 24.0 657 648 0.0 0.0 -17.5 - 3.42 0.00 40 13.1 0.0 0.0
5/17/22 87.6 51.7 0.00 19.8 19.7 633 624 0.0 0.0 -15.5 - 5.41 0.00 50 12.8 0.0 0.0
5/16/22 88.5 58.1 0.00 21.4 23.3 613 604 0.0 0.0 0.0 - 5.16 0.00 60 13.5 0.0 0.0
5/15/22 94.8 54.8 0.00 26.2 24.8 592 581 0.0 0.0 -18.0 - 4.46 0.00 70 13.5 0.0 0.0
5/14/22 91.9 49.9 0.00 21.5 20.9 565 556 0.0 0.0 -13.5 - 3.64 0.00 80 12.6 0.0 0.0
5/13/22 84.2 41.5 0.00 15.2 12.8 544 535 3.7 3.7 0.0 - 9.66 0.00 90 11.8 0.0 0.0
5/12/22 78.2 39.1 0.00 11.9 8.6 529 522 5.4 5.4 1.5 - 8.48 0.00 70 11.6 0.0 0.0
5/11/22 72.1 39.6 0.00 7.8 5.8 517 514 4.8 4.8 2.5 - 2.31 0.00 50 10.1 0.0 0.0
5/10/22 70.4 42.5 0.00 6.7 6.4 509 508 4.6 4.6 2.0 - 0.08 0.00 60 10.1 0.0 0.0
5/9/22 68.3 40.6 0.00 5.8 4.5 502 502 3.1 3.1 4.5 - 0.00 0.00 70 9.8 0.0 0.0
5/8/22 73.5 47.1 0.00 9.9 10.3 496 497 0.0 0.0 1.0 - 3.60 0.00 80 11.3 0.0 0.0
5/7/22 80.6 53.6 0.00 15.8 17.1 487 487 0.0 0.0 0.0 - 8.70 0.00 90 13.3 0.0 0.0
5/6/22 87.6 51.5 0.00 19.8 19.5 471 470 0.0 0.0 -15.0 - 4.91 0.00 70 12.4 0.0 0.0
5/5/22 93.9 51.2 0.00 23.3 22.6 451 450 0.0 0.0 -16.5 - 2.45 0.00 80 12.3 0.0 0.0
5/4/22 91.7 47.4 0.00 19.2 19.6 428 428 0.0 0.0 0.0 - 3.52 0.00 90 12.0 0.0 0.0
5/3/22 80.6 48.2 0.00 13.4 14.4 408 408 0.0 0.0 0.5 - 8.47 0.00 100 11.7 0.0 0.0
5/2/22 85.1 48.2 0.00 17.3 16.6 395 394 0.0 0.0 0.0 - 10.61 0.00 100 12.1 0.0 0.0
5/1/22 81.2 48.5 0.00 13.6 14.8 378 377 0.0 0.0 0.0 - 7.79 0.00 100 11.5 0.0 0.0
4/30/22 85.2 45.2 0.00 16.8 15.2 364 362 0.0 0.0 -9.5 - 10.47 0.00 100 11.8 0.0 0.0
4/29/22 78.7 41.8 0.00 11.3 10.3 347 347 3.0 3.0 1.0 74 7.70 0.00 100 11.0 0.0 0.0
4/28/22 76.9 45.5 0.00 9.8 11.2 336 337 0.0 0.0 1.5 74 5.74 0.00 90 10.8 0.0 0.0
4/27/22 83.1 47.7 0.00 13.2 15.4 326 326 0.0 0.0 1.0 74 8.55 0.00 100 11.4 0.0 0.0
4/26/22 80.8 49.1 0.00 15.6 14.9 313 310 0.0 0.0 0.0 74 9.68 0.00 100 12.2 0.0 0.0
4/25/22 91.1 46.8 0.00 17.9 18.9 298 295 0.0 0.0 0.0 74 4.15 0.00 80 11.7 0.0 0.0
4/24/22 83.4 44.9 0.00 14.1 14.1 280 276 0.0 0.0 0.0 74 9.07 0.00 90 11.4 0.0 0.0
4/23/22 76.2 40.7 0.00 9.4 8.4 265 262 5.2 5.2 1.5 74 4.89 0.00 70 10.4 0.0 0.0
4/22/22 69.2 46.0 0.18 5.6 7.6 256 254 0.0 0.0 2.5 73 0.00 0.00 80 9.0 0.0 0.0
Max 97.2 58.1 0.18 27.8 27.5 - - 5.4 5.4 4.5 74 10.61 1.75 - 13.6 0.0 0.0
Avg - - - 15.7 15.5 - - 1.0 1.0 -3.5 74 5.67 0.06 - 11.8 0.0 0.0
Min 68.3 39.1 0.00 5.6 4.5 - - 0.0 0.0 -18.5 73 0.00 0.00 - 9.0 0.0 0.0
Total - - - 471.2 465.0 - - 29.7 29.7 -104.0 - 170.14 1.75 - 354.8 0.0 0.0

Climate Summary

Lindcove R.E.C.

Current Year | Showing 1/1/22 - 5/21/22
as of 5/22/22 3:33 PM PDT
Temperature (°F) Max Wind Gust (mph) Precip (in) Days
Month Days Avg High Avg Low Max Min Avg Max Total Daily Min Temp < 28 Daily Min Temp < 32 Daily Max Temp > 90 Daily Max Temp > 100 Daily Rain > 0.01 Daily Rain > 0.1
Jan 2022 31 64.5 34.5 70.4 29.4 7.6 10.7 0 0 11 0 0 0 0
Feb 2022 28 70.3 33.8 87.1 29 9.2 21.9 0.45 0 9 0 0 1 1
Mar 2022 31 75.3 41.7 92.3 34.2 11.5 23.2 1.27 0 0 3 0 3 2
Apr 2022 30 79.7 44.4 97.1 31.7 14.1 21.3 0.29 0 1 3 0 2 2
May 2022 21 84.5 48.7 97.2 39.1 14.5 18 0 0 0 6 0 0 0
Total 141 - - - - - - 2.01 0 21 12 0 6 5
Average 28.2 74.3 40.2 74.3 40.2 11.2 - 0.4 0 4.2 2.4 0 1.2 1
Maximum 31 84.5 48.7 97.2 - - 23.2 1.27 0 11 6 0 3 2
Minimum 21 64.5 33.8 - 29 - - 0 0 0 0 0 0 0

Climate Summary

Lindcove R.E.C.

Last Year | Showing 1/1/21 - 12/31/21
as of 5/22/22 3:33 PM PDT
Temperature (°F) Max Wind Gust (mph) Precip (in) Days
Month Days Avg High Avg Low Max Min Avg Max Total Daily Min Temp < 28 Daily Min Temp < 32 Daily Max Temp > 90 Daily Max Temp > 100 Daily Rain > 0.01 Daily Rain > 0.1
Jan 2021 31 64.3 35.6 76.4 30 10.3 18.2 1.77 0 2 0 0 7 4
Feb 2021 28 68.4 37.3 79.3 32.3 10.6 20.2 0.74 0 0 0 0 2 2
Mar 2021 31 71.1 39.2 86.7 32.8 12.8 24.3 1.23 0 0 0 0 4 4
Apr 2021 30 82.7 45.4 97.1 40.6 13.1 19.3 0.1 0 0 5 0 1 0
May 2021 31 90.1 52.2 104.9 42.4 15 21.3 0 0 0 18 1 0 0
Jun 2021 30 99.2 62.3 114.7 46.9 14.1 26.3 0 0 0 25 14 0 0
Jul 2021 31 104.7 68 113.5 62.3 13.5 16.7 0.01 0 0 31 29 0 0
Aug 2021 31 100.8 63.2 107.9 57.7 12.4 18 0 0 0 28 21 0 0
Sep 2021 30 94.2 57.6 109.1 48.3 11.3 17.3 0 0 0 20 6 0 0
Oct 2021 31 78.5 46.2 90.4 35.4 10.8 20.4 2.09 0 0 2 0 3 2
Nov 2021 30 70.9 43.9 78 33.6 8 14.5 0.13 0 0 0 0 2 1
Dec 2021 31 58.2 38 81 29.9 9.4 25.2 4.85 0 3 0 0 11 10
Total 365 - - - - - - 10.92 0 5 129 71 30 23
Average 30.4 82 49.1 82 49.1 11.8 - 0.91 0 0.4 10.8 5.9 2.5 1.9
Maximum 31 104.7 68 114.7 - - 26.3 4.85 0 3 31 29 11 10
Minimum 28 58.2 35.6 - 29.9 - - 0 0 0 0 0 0 0
Calm: 1.0%
Calm: 0.0%